Terminal Aerodrome Forecast
Issued by NWS Aberdeen, SD

Home | Current Version | Previous Version | Text Only | Print | Product List | Glossary On
Versions: 1 2 3 4 5 6 7 8 9 10 11 12 13 14 15 16 17 18 19 20 21 22 23 24 25 26 27 28 29 30 31 32 33 34 35 36 37 38 39 40 41 42 43 44 45 46 47 48 49 50
758
FTUS43 KABR 162338
TAFABR
TAF
KABR 162338Z 1700/1724 35014KT P6SM -SHRA BKN013 BKN021 OVC100
     FM170100 35010KT P6SM VCSH OVC025
     FM170300 35007KT P6SM BKN030
     FM170500 34007KT P6SM BKN035
     FM170700 33007KT P6SM SCT060=

USA.gov is the U.S. government's official web portal to all federal, state and local government web resources and services.